Regional Weather Roundup
Issued by NWS Newport/Morehead, NC

Current Version | Previous Version | Text Only | Print | Product List | Glossary On
Versions: 1 2 3 4 5 6 7 8 9 10 11 12 13 14 15 16 17 18 19 20 21 22 23 24 25 26 27 28 29 30 31 32 33 34 35 36 37 38 39 40
000
ASUS42 KMHX 162314
RWRMHX
WEATHER ROUNDUP FOR EASTERN NORTH CAROLINA
NATIONAL WEATHER SERVICE NEWPORT/MOREHEAD CITY NC
700 PM EDT WED AUG 16 2017

NOTE: "FAIR" INDICATES FEW OR NO CLOUDS BELOW 12,000 FEET
WITH NO SIGNIFICANT WEATHER AND/OR OBSTRUCTIONS TO VISIBILITY

NCZ015>017-031-032-045>047-102-103-170000-
NORTH COAST

CITY           SKY/WX    TMP DP  RH WIND       PRES   REMARKS
EDENTON        CLEAR     84  77  79 CALM      30.00S
ELIZABETH CITY CLEAR     82  76  81 E8        30.00R
KITTY HAWK     MOCLDY    78  74  85 CALM      29.99S
MANTEO         MOCLDY    79  74  84 E9        30.00S

$$

NCZ045>047-081-094-103-104-170000-
CENTRAL COAST

CITY           SKY/WX    TMP DP  RH WIND       PRES   REMARKS
FRISCO         CLEAR     82  75  79 NE6       29.99R

$$

NCZ095-097-098-100-101-170000-
SOUTHERN COAST

CITY           SKY/WX    TMP DP  RH WIND       PRES   REMARKS
BEAUFORT       CLEAR     83  78  85 VRB3      29.98S
CEDAR ISLAND   NOT AVBL
JACKSONVILLE   MOSUNNY   87  77  72 NE6       29.97S
PINEY ISLAND   CLEAR    N/A N/A N/A E10       29.98R
WILMINGTON     MOSUNNY   84  77  79 SE7       29.98S


$$

NCZ011>013-027>030-043-044-078>080-089-090>093-098-170000-
COASTAL PLAIN

CITY           SKY/WX    TMP DP  RH WIND       PRES   REMARKS
AHOSKIE          N/A     81  74  80 CALM      29.99S
CLINTON        SUNNY     89  74  62 N5        29.99R
ELIZABETHTOWN  NOT AVBL
GOLDSBORO      SUNNY     88  77  70 NE3       29.97F HX 100
GREENVILLE     SUNNY     86  72  62 N6        30.00S
HAVELOCK       CLEAR     85  77  77 SE7       29.98S
KENANSVILLE    SUNNY     86  73  66 NE3       29.98S
KINSTON        SUNNY     88  72  58 N5        29.98F
NEW BERN       SUNNY     87  76  69 NE5       29.99S
RICHLANDS      SUNNY     87  75  67 N5        29.98S
ROCKY MOUNT    SUNNY     84  76  76 CALM      29.99S
WASHINGTON     SUNNY     85  76  74 N3        29.98S
WHITEVILLE     MOSUNNY   86  79  79 CALM      29.97R HX 100

$$

AMZ130-135-150-152-154-156-158-170-250-252-270-ANZ085-086-088-633-658-670-170000-
MARINE OBSERVATIONS

STATION/POSITION TIME  TEMP    WIND        PRES    WAVE   SWELL
                       AIR SEA DIR/SP/G            HT/PER HT/PER
                 (UTC) (F)     (DEG/KT/KT) (MB)    (FT/S) (FT/S)
CHESAPEAKE LIGHT NOT AVBL
64 E VA BEACH    2250   78 79   70/  4/  6 1016.3    2/ 8   2/ 8
DUCK             2248   79 79   80/  7/  8 1015.7
2 E DUCK         2300      79                N/A     2/ 7
OREGON INLET     2248           30/  6/ 11 1015.8
13E OREGON INLT  2248      78                N/A     3/ 7   2/ 7
HATTERAS CG      2248   81 84   50/  8/ 10 1015.3
DIAMOND BUOY     2250   81 84   40/ 12/ 14 1015.0    3/ 7   2/ 7
CAPE LOOKOUT     2300   81      80/  8/  8 1014.9
BEAUFORT LAB     2248   84 82  110/  6/  7 1014.7
30 SE NEW RVR IN 2208   85 84  200/  2/  4 1015.2
30 SE NEW RVR IN 2243      85                N/A     3/ 8
27 SE WRIGHTSVLE 2208   83 85  210/  2/  4 1015.1
5 SE WRIGHTSVLE  2208   83 84  180/  6/ 10 1015.1
225 S CAPE HAT   2250   84 84  240/ 12/ 14 1015.5    4/ 6   2/ 7
41 SE CHARLESTON 2300   84 84  220/ 10/ 12 1014.9

$$




USA.gov is the U.S. government's official web portal to all federal, state and local government web resources and services.